STARLINK-30539

operational
NORAD ID: 58004 Int'l Des: 2023-153 Owner: SPXS Country: US Constellation: starlink
LEOCIRCULAR

About STARLINK-30539

Description loading...

Live Position

Loading 3D Globe...

Upcoming Passes

Altitude History

Altitude vs Time

uPlot chart will show altitude changes over time

Two-Line Element Set

1 58004U 23153P 25251.51393176 -.00000657 00000-0 -33555-4 0 9996
2 58004 43.0051 338.5375 0001600 269.5109 90.5550 15.02533296107474
Epoch: Sep 8, 2025 • Age: 15 hours

Current Status

Altitude 560.6 km
Velocity 7.59 km/s
Sub-Earth Point 30.90°N, 17.16°W
Launch Date Oct 5, 2023
Age 1.9 years
Type internet

Technical Details

Classification Payload
Mass 730.00 kg
Dry Mass 700.00 kg
Total Mass 730.00 kg
Length 0.30 m
Diameter 4.10 m
Span 29.00 m
Shape Box + pan
Manufacturer SPXS
Bus Type Starlink V2M
Phase Status In Orbit
Owner/State SPXS/US

Large Constellations

Loading constellations...